Location: Atherton
(17.2661°S, 145.4859°E)
Time: 23:28:08
(UTC+10:00)

ARIANE 6 FM1 Upper Stage - Pass Details

Date: 29 May 2025
Orbit: 531 x 610 km, 62.0° (Epoch: 15 June)

Event Time Altitude Azimuth Distance (km) Brightness Sun altitude
Exits shadow 04:00:56 13° 102° (ESE) 1,748 5.7 -36.9°
Drops below altitude 10° 04:01:48 10° 112° (ESE) 1,965 5.9 -36.7°
Sets 04:04:40 0° 130° (SE) 2,881 6.7 -36.1°
